www.pogodaiklimat.ru

Погода и климат >> Архив погоды >> Россия >> Якутия >> Верхневилюйск


ПОГОДА в Верхневилюйске

  • Прогноз погоды в Верхневилюйске
  • Монитор погоды в Верхневилюйске

АРХИВ ПОГОДЫ в Верхневилюйске

Время (UTC), дата Ветер
(напр.,м/с)
 
Видим.   Явления Облачность Т
(С)
Тd
(С)
f
(%)
Тe
(С)
Тes
(С)
Комфортность P
(гПа)
Po
(гПа)
Тmin
(С)
Tmax
(С)
R
(мм)
R24
(мм)
S
(см)
06 9.01 СВ 1 50 км {снег} 4/0
[Ci fib]
-34.8 -37.7 75 -39 -39 опасность
обморожения
1006.6 990.1
09 9.01 штиль 0 20 км ясно -35.9 -39.3 71 -36 -36 опасность
обморожения
1009.8 993.2
12 9.01 штиль 0 20 км ясно -38.2 -40.9 76 -38 -38 опасность
обморожения
1012.4 995.5 -34.5 0.2
15 9.01 штиль 0 20 км 10/0
[Cs]
-37.6 -40.5 74 -38 -38 опасность
обморожения
1013.8 997.1
18 9.01 ЮВ 1 10 км слаб. снег 10/0
[Ac trans Cs]
-34.7 -37.7 74 -39 -39 опасность
обморожения
1014.9 998.2
21 9.01 штиль 0 20 км {снег} ясно -37.9 -40.9 73 -38 -38 опасность
обморожения
1015.3 998.5
00 10.01 штиль 0 20 км {снег} ясно -40.3 -43.2 74 -40 -40 опасность
обморожения
1015.5 998.4 -40.3 0.0 18
03 10.01 штиль 0 4000 м дымка ясно -38.9 -42.4 69 -39 -39 опасность
обморожения
1014.2 997.3
06 10.01 В 1 50 км 4/0
[Ci fib]
-36.9 -40.4 70 -42 -42 опасность
обморожения
1012.8 996.1
09 10.01 штиль 0 20 км 10/0
[Cs]
-34.4 -38.1 69 -34 -34 опасность
обморожения
1011.6 995.0
12 10.01 штиль 0 10 км слаб. снег 10/0
[Cs]
-32.7 -35.7 74 -33 -33 опасность
обморожения
1009.9 993.4 -32.7 0.0
15 10.01 В 1 10 км слаб. снег 10/0
[Cs]
-31.9 -35.0 74 -36 -36 опасность
обморожения
1008.4 992.1
18 10.01 СВ 1 20 км {снег} ясно -32.4 -35.5 74 -37 -37 опасность
обморожения
1008.1 991.7
21 10.01 СВ 1 10 км слаб. снег 10/0
[Cs]
-32.3 -35.2 75 -37 -37 опасность
обморожения
1008.1 991.7
00 11.01 штиль 0 10 км слаб. снег 10/0
[Cs]
-31.9 -35.0 74 -32 -32 опасность
обморожения
1008.5 992.2 -32.7 1 19
03 11.01 З 1 50 км {снег} 10/0
[Cs]
-33.0 -36.0 74 -37 -37 опасность
обморожения
1009.7 993.2 -33.8
06 11.01 штиль 0 50 км {снег} 10/0
[Cs]
-31.5 -34.5 75 -32 -32 опасность
обморожения
1011.4 995.0
09 11.01 штиль 0 20 км 3/0
[Ci fib]
-36.8 -40.4 69 -37 -37 опасность
обморожения
1014.1 997.4
12 11.01 штиль 0 20 км 3/0
[Ci fib]
-39.8 -43.3 69 -40 -40 опасность
обморожения
1017.1 1000.0 -31.0 0.2
15 11.01 ЮЗ 2 20 км ясно -40.8 -44.4 68 -50 -50 опасность
обморожения
1019.3 1002.2
18 11.01 ЮЗ 1 20 км ясно -30.3 -34.1 69 -34 -34 опасность
обморожения
1021.3 1004.7
21 11.01 Ю 2 20 км ясно -29.7 -32.8 74 -37 -37 опасность
обморожения
1023.2 1006.8
00 12.01 Ю 1 20 км ясно -34.5 -37.4 75 -39 -39 опасность
обморожения
1026.2 1009.3 -41.4 19
03 12.01 Ю 2 50 км ясно -30.8 -33.2 79 -38 -38 опасность
обморожения
1028.2 1011.5
06 12.01 ЮВ 2 50 км ясно -30.3 -32.7 79 -38 -38 опасность
обморожения
1029.3 1012.6
09 12.01 ЮВ 1 20 км ясно -31.2 -33.6 79 -35 -35 опасность
обморожения
1030.2 1013.5
12 12.01 Ю 2 20 км ясно -29.7 -32.8 74 -37 -37 опасность
обморожения
1030.4 1013.9 -29.7
15 12.01 Ю 3 20 км 6/0
[Ci]
-29.4 -32.4 75 -39 -39 опасность
обморожения
1029.1 1012.6
18 12.01 Ю 2 20 км 6/0
[Ci fib]
-27.6 -29.9 81 -35 -35 опасность
обморожения
1028.4 1012.1
21 12.01 Ю 2 10 км слаб. снег 10/0
[Cs]
-26.0 -28.4 80 -33 -33 опасность
обморожения
1027.3 1011.1
00 13.01 Ю 3 10 км слаб. снег 10/0
[Cs]
-26.5 -29.0 79 -35 -35 опасность
обморожения
1027.0 1010.7 -30.5 0.2 19
03 13.01 Ю 2 50 км {снег} 10/0
[Cs]
-26.3 -29.4 75 -33 -33 опасность
обморожения
1026.6 1010.3
06 13.01 Ю 1 10 км 10/0
[]
-25.9 -28.4 79 -30 -30 1010.1
09 13.01 Ю 2 10 км слаб. снег 10/0
[Cs]
-26.1 -28.5 80 -33 -33 опасность
обморожения
1026.2 1009.9
12 13.01 ЮЗ 2 10 км слаб. снег 10/0
[Cs]
-26.8 -29.3 79 -34 -34 опасность
обморожения
1026.5 1010.2 -25.9 0.4
15 13.01 З 2 10 км слаб. снег 10/0
[Cs]
-28.0 -31.1 75 -35 -35 опасность
обморожения
1027.4 1011.0
18 13.01 З 3 10 км слаб. снег 10/0
[Cs]
-30.4 -33.4 75 -40 -40 опасность
обморожения
1029.1 1012.4
21 13.01 З 3 20 км {снег} 4/0
[Ci fib]
-33.1 -36.0 75 -43 -43 опасность
обморожения
1030.7 1013.9
00 14.01 З 3 20 км {снег} 8/0
[Ci]
-35.2 -38.7 70 -46 -46 опасность
обморожения
1031.7 1014.8 -35.2 0.3 20
03 14.01 ЮЗ 1 50 км 3/0
[Ci fib]
-37.8 -41.1 71 -43 -43 опасность
обморожения
1032.1 1015.0 -37.8
06 14.01 ЮЗ 2 50 км ясно -38.7 -42.0 71 -48 -48 опасность
обморожения
1032.1 1014.9
09 14.01 ЮЗ 2 50 км ясно -38.7 -42.0 71 -48 -48 опасность
обморожения
1032.1 1014.9
12 14.01 штиль 0 4000 м дымка ясно -47.0 -51.4 60 -47 -47 опасность
обморожения
1031.6 1013.8 -35.2
15 14.01 штиль 0 4000 м дымка ясно -49.8 -53.5 65 -50 -50 опасность
обморожения
1030.8 1012.8
18 14.01 штиль 0 10 км дымка ясно -51.2 -55.6 59 -51 -51 опасность
обморожения
1031.0 1012.8
21 14.01 З 1 20 км ясно -51.6 -56.9 53 -58 -58 опасность
обморожения
1031.3 1013.1
00 15.01 штиль 0 20 км ясно -50.6 -55.6 55 -51 -51 опасность
обморожения
1032.7 1014.5 -51.9 20
06 15.01 З 1 50 км ясно -47.5 -53.2 52 -54 -53 опасность
обморожения
1033.4 1015.6
09 15.01 штиль 0 4000 м дымка ясно -48.5 -53.2 58 -49 -49 опасность
обморожения
1034.4 1016.4
12 15.01 штиль 0 4000 м дымка ясно -48.5 -53.2 58 -49 -49 опасность
обморожения
1034.4 1016.4
15 15.01 штиль 0 4000 м дымка ясно -49.7 -54.4 57 -50 -50 опасность
обморожения
1035.3 1017.3 -47.5
18 15.01 ЮЗ 1 20 км ясно -49.3 -53.5 61 -56 -56 опасность
обморожения
1035.3 1017.3
21 15.01 Ю 1 4000 м дымка ясно -47.9 -52.4 59 -54 -54 опасность
обморожения
1035.7 1017.8
00 16.01 Ю 1 4000 м дымка ясно -47.0 -50.8 65 -53 -53 опасность
обморожения
1035.9 1018.0 -49.8 20

 

Местоположение метеостанции Верхневилюйск (Якутия, Россия): широта 63.45 долгота 120.20 высота над уровнем моря 115 м.

В архиве по умолчанию представлена погода в Верхневилюйске за последнюю неделю. Архивные данные за месяц целиком и за предыдущие месяцы, начиная с января 2011 года, Вы можете получить, выбрав интересующий диапазон дат из раскрывающегося списка и нажав кнопку "Ввод!".


*Определитесь, кто Вы:
робот инопланетянин человек

Внимание! Время в таблицах - всемирное. Для получения местного времени необходимо прибавить поправку, которая равна 9 ч.

Смотрите также архив погоды в соседних городах и на ближайших метеорологических станциях:

Погода в Вилюйске (Якутия, Россия) (78 км)
Погода в Нюрбе (Якутия, Россия) (97 км)
Погода в Чумпуруке (Якутия, Россия) (184 км)
Погода в Сунтаре (Якутия, Россия) (194 км)
Погода в Хатырык-Хомо (Якутия, Россия) (233 км)
Погода в Крестяхе (Якутия, Россия) (246 км)
Погода в Тонгулахе (Якутия, Россия) (278 км)
Погода в Бестяхской Звероферме (Якутия, Россия) (278 км)
Погода в Килиере (Якутия, Россия) (282 км)
Погода в Эйке (Якутия, Россия) (316 км)

Пояснения к столбцам:

Ветер - указаны скорость ветра в м/с - средняя за 10 мин, порывы в срок и между сроками (в фигурных скобках) и направление, откуда дует ветер: С - северный, СВ - северо-восточный, В - восточный, ЮВ - юго-восточный, Ю - южный, ЮЗ - юго-западный, З - западный, СЗ - северо-западный.
Видимость - горизонтальная дальность видимости в метрах или километрах. При видимости от 1 до 10 км при отсутствии осадков обычно наблюдается дымка, при ухудшении видимости до 1 км и менее - туман. В сухую погоду видимость может ухудшаться дымом, пылью или мглою.
Явления - указаны атмосферные явления, наблюдавшиеся в срок или в последний час перед сроком; фигурными скобками обозначены явления, наблюдавшиеся между сроками (за 1-3 часа до срока); квадратными скобками обозначены град или гололедные отложения с указанием их диаметра в мм.
Облачность - указаны через наклонную черту общая и нижняя облачность в баллах и высота нижней границы облаков в метрах; квадратными скобками обозначены формы облаков: Ci - перистые, Cs - перисто-слоистые, Cc - перисто-кучевые, Ac - высококучевые, As - высокослоистые, Sc - слоисто-кучевые, Ns - слоисто-дождевые, Cu - кучевые, Cb - кучево-дождевые. Подробнее классификацию облаков см. в Атласе облаков (PDF).
T - Температура воздуха - температура, измеренная на высоте 2 м над землей.
Td - Температура точки росы - температура, при понижении до которой содержащийся в воздухе водяной пар достигнет насыщения.
f - Относительная влажность воздуха - влажноcть воздуха, измеренная на высоте 2 м над землей.
Te - Эффективная температура - температура, которую ощущает одетый по сезону человек в тени. Характеристика душности погоды. При расчете учитывается влияние влажности воздуха и скорости ветра на теплоощущения человека.
Tes - Эффективная температура на солнце - температура, которую ощущает человек, с поправкой на солнечный нагрев. Характеристика знойности погоды. Зависит от высоты солнца над горизонтом, облачности и скорости ветра. Ночью, в пасмурную погоду, а также при ветре 12 м/с и более поправка равна нулю.
P - Атмосферное давление - приведенное к уровню моря атмосферное давление.
Po - Атмосферное давление - измеренное на уровне метеостанции атмосферное давление.
Tmin - Минимальная температура - минимум температуры воздуха на высоте 2 м над землей.
Tmax - Максимальная температура - максимум температуры воздуха на высоте 2 м над землей.
R - Количество осадков - Количество выпавших осадков за период времени, мм. При наведении курсора мыши на число - период времени, за который выпало указанное количество осадков.
R24 - Количество осадков - Количество выпавших осадков за 24 часа, мм.
S - Снежный покров - Высота снежного покрова, см. При наведении курсора мыши на число - состояние снежного покрова и степень покрытия местности в баллах.